{"data":{"norad_id":56481,"epoch":"2026-09-20T22:00:03.000096Z","epoch_age_seconds":76017,"freshness":"FRESH","line1":"1 56481U 23064AK  26263.91670139 -.00005643  00000+0 -39831-3 0  9990","line2":"2 56481  70.0012 352.0448 0002020 313.2446 164.6027 15.04233757  5771","mean_motion":15.04233757,"eccentricity":0.000202,"inclination_deg":70.0012,"raan_deg":352.0448,"arg_perigee_deg":313.2446,"mean_anomaly_deg":164.6027,"bstar":-0.00039831,"rev_number":577,"period_min":95.729802186589,"perigee_km":552.45848392768,"apogee_km":555.2590102095,"semimajor_km":6931.9957470686,"source":"CELESTRAK","updated_at":"2026-09-21T09:00:33.447856Z"}}